• In Belarus
  • List of Countries
  • For 7 days
  • Water Temperature
  • Satellite Maps
  • Weather Map
  • Weather Widgets
  • user-avatar
    Login

    Hourly Weather Bujumbura

    Today, 23 June, Saturday

    Time Temperature Precipitation Wind Pressure Humidity
    00:00 +22°C° 0.1 mm 1 mps 694 mmHg 90%
    01:00 +22°C° 0.1 mm 1 mps 694 mmHg 90%
    02:00 +22°C° 0 mm 1 mps 694 mmHg 90%
    03:00 +22°C° 0 mm 1 mps 694 mmHg 90%
    04:00 +21°C° 0 mm 1 mps 694 mmHg 89%
    05:00 +21°C° 0 mm 1 mps 693 mmHg 89%
    06:00 +23°C° 0 mm 1 mps 694 mmHg 84%
    07:00 +24°C° 0 mm 1 mps 694 mmHg 79%
    08:00 +26°C° 0 mm 1 mps 695 mmHg 72%
    09:00 +27°C° 0.1 mm 1 mps 694 mmHg 69%
    10:00 +28°C° 0.1 mm 1 mps 694 mmHg 65%
    11:00 +29°C° 0.1 mm 2 mps 694 mmHg 61%
    12:00 +29°C° 0.2 mm 2 mps 693 mmHg 61%
    13:00 +29°C° 0.2 mm 2 mps 693 mmHg 62%
    14:00 +29°C° 0.2 mm 2 mps 692 mmHg 62%
    15:00 +29°C° 0.5 mm 2 mps 692 mmHg 65%
    16:00 +28°C° 0.5 mm 1 mps 692 mmHg 68%
    17:00 +28°C° 0.5 mm 1 mps 691 mmHg 71%
    18:00 +26°C° 0.3 mm 1 mps 691 mmHg 76%
    19:00 +25°C° 0.3 mm 1 mps 692 mmHg 80%
    20:00 +21°C° 0.3 mm 0 mps 692 mmHg 85%
    21:00 +21°C° 0 mm 0 mps 692 mmHg 86%
    22:00 +23°C° 0 mm 1 mps 693 mmHg 86%
    23:00 +22°C° 0 mm 1 mps 693 mmHg 87%

    Tomorrow, 24 June, Sunday

    Time Temperature Precipitation Wind Pressure Humidity
    00:00 +22°C° 0 mm 1 mps 693 mmHg 87%
    01:00 +22°C° 0 mm 1 mps 692 mmHg 87%
    02:00 +22°C° 0 mm 1 mps 692 mmHg 87%
    03:00 +21°C° 0 mm 1 mps 692 mmHg 87%
    04:00 +21°C° 0 mm 1 mps 692 mmHg 86%
    05:00 +21°C° 0 mm 1 mps 692 mmHg 86%
    06:00 +23°C° 0 mm 1 mps 693 mmHg 80%
    07:00 +24°C° 0 mm 1 mps 693 mmHg 75%
    08:00 +26°C° 0 mm 1 mps 694 mmHg 69%
    09:00 +27°C° 0 mm 1 mps 694 mmHg 63%
    10:00 +29°C° 0 mm 1 mps 694 mmHg 57%
    11:00 +30°C° 0 mm 2 mps 694 mmHg 50%
    12:00 +30°C° 0 mm 2 mps 693 mmHg 52%
    13:00 +30°C° 0 mm 2 mps 692 mmHg 53%
    14:00 +30°C° 0 mm 2 mps 691 mmHg 55%
    15:00 +29°C° 0.3 mm 2 mps 691 mmHg 59%
    16:00 +29°C° 0.3 mm 1 mps 691 mmHg 62%
    17:00 +28°C° 0.3 mm 1 mps 691 mmHg 66%
    18:00 +27°C° 0.3 mm 1 mps 691 mmHg 70%
    19:00 +23°C° 0.3 mm 0 mps 692 mmHg 75%
    20:00 +22°C° 0.3 mm 0 mps 692 mmHg 79%
    21:00 +22°C° 0.1 mm 0 mps 692 mmHg 80%
    22:00 +22°C° 0.1 mm 0 mps 693 mmHg 81%
    23:00 +23°C° 0.1 mm 1 mps 693 mmHg 82%

    Day after tomorrow, 25 June, Monday

    Time Temperature Precipitation Wind Pressure Humidity
    00:00 +23°C° 0 mm 1 mps 692 mmHg 83%
    01:00 +23°C° 0 mm 1 mps 692 mmHg 84%
    02:00 +22°C° 0 mm 1 mps 692 mmHg 84%
    03:00 +22°C° 0 mm 1 mps 692 mmHg 84%
    04:00 +22°C° 0 mm 1 mps 691 mmHg 85%
    05:00 +21°C° 0 mm 1 mps 691 mmHg 85%
    06:00 +23°C° 0 mm 1 mps 692 mmHg 79%
    07:00 +24°C° 0 mm 1 mps 692 mmHg 73%
    08:00 +26°C° 0 mm 1 mps 693 mmHg 67%
    09:00 +27°C° 0 mm 1 mps 693 mmHg 62%
    10:00 +29°C° 0 mm 2 mps 693 mmHg 57%
    11:00 +30°C° 0 mm 2 mps 693 mmHg 51%
    12:00 +30°C° 0 mm 2 mps 692 mmHg 52%
    13:00 +30°C° 0 mm 2 mps 692 mmHg 52%
    14:00 +30°C° 0 mm 2 mps 691 mmHg 52%
    15:00 +29°C° 0 mm 2 mps 691 mmHg 55%
    16:00 +29°C° 0 mm 1 mps 691 mmHg 58%
    17:00 +28°C° 0 mm 1 mps 690 mmHg 61%
    18:00 +27°C° 0.1 mm 1 mps 691 mmHg 66%
    19:00 +23°C° 0.1 mm 0 mps 691 mmHg 71%
    20:00 +22°C° 0.1 mm 0 mps 692 mmHg 75%
    21:00 +21°C° 0 mm 0 mps 692 mmHg 76%
    22:00 +23°C° 0 mm 1 mps 692 mmHg 76%
    23:00 +23°C° 0 mm 1 mps 693 mmHg 77%

    26 June, Tuesday

    Time Temperature Precipitation Wind Pressure Humidity
    00:00 +23°C° 0 mm 1 mps 692 mmHg 78%
    01:00 +22°C° 0 mm 1 mps 692 mmHg 78%
    02:00 +22°C° 0 mm 1 mps 691 mmHg 79%
    03:00 +22°C° 0 mm 1 mps 691 mmHg 79%
    04:00 +21°C° 0 mm 1 mps 691 mmHg 80%
    05:00 +21°C° 0 mm 1 mps 691 mmHg 80%
    06:00 +23°C° 0 mm 1 mps 692 mmHg 74%
    07:00 +24°C° 0 mm 1 mps 693 mmHg 69%
    08:00 +26°C° 0 mm 1 mps 693 mmHg 63%
    09:00 +27°C° 0 mm 1 mps 693 mmHg 58%
    10:00 +29°C° 0 mm 2 mps 693 mmHg 54%
    11:00 +30°C° 0 mm 2 mps 693 mmHg 49%
    12:00 +30°C° 0 mm 2 mps 692 mmHg 49%
    13:00 +30°C° 0 mm 2 mps 692 mmHg 48%
    14:00 +31°C° 0 mm 2 mps 691 mmHg 48%
    15:00 +30°C° 0 mm 2 mps 690 mmHg 51%
    16:00 +29°C° 0 mm 2 mps 690 mmHg 54%
    17:00 +29°C° 0 mm 1 mps 690 mmHg 57%
    18:00 +27°C° 0 mm 1 mps 691 mmHg 62%
    19:00 +25°C° 0 mm 1 mps 691 mmHg 68%
    20:00 +22°C° 0 mm 0 mps 692 mmHg 73%
    21:00 +23°C° 0 mm 1 mps 692 mmHg 74%
    22:00 +23°C° 0 mm 1 mps 692 mmHg 74%
    23:00 +23°C° 0 mm 1 mps 692 mmHg 75%

    27 June, Wednesday

    Time Temperature Precipitation Wind Pressure Humidity
    00:00 +23°C° 0 mm 1 mps 692 mmHg 76%
    01:00 +22°C° 0 mm 1 mps 692 mmHg 76%
    02:00 +22°C° 0 mm 1 mps 691 mmHg 76%
    03:00 +22°C° 0 mm 1 mps 691 mmHg 76%
    04:00 +22°C° 0 mm 1 mps 691 mmHg 76%
    05:00 +22°C° 0 mm 1 mps 692 mmHg 76%
    06:00 +23°C° 0 mm 1 mps 692 mmHg 72%
    07:00 +24°C° 0 mm 1 mps 693 mmHg 67%
    08:00 +25°C° 0 mm 1 mps 694 mmHg 63%
    09:00 +27°C° 0 mm 1 mps 694 mmHg 58%
    10:00 +29°C° 0 mm 2 mps 694 mmHg 53%
    11:00 +30°C° 0 mm 2 mps 693 mmHg 48%
    12:00 +31°C° 0 mm 2 mps 693 mmHg 48%
    13:00 +31°C° 0 mm 2 mps 692 mmHg 47%
    14:00 +31°C° 0 mm 2 mps 691 mmHg 47%
    15:00 +30°C° 0 mm 2 mps 691 mmHg 51%
    16:00 +29°C° 0 mm 1 mps 690 mmHg 54%
    17:00 +29°C° 0 mm 1 mps 690 mmHg 58%
    18:00 +27°C° 0.1 mm 1 mps 691 mmHg 63%
    19:00 +26°C° 0.1 mm 1 mps 691 mmHg 68%
    20:00 +22°C° 0.1 mm 0 mps 692 mmHg 74%
    21:00 +24°C° 0.1 mm 1 mps 692 mmHg 75%
    22:00 +24°C° 0.1 mm 1 mps 692 mmHg 76%
    23:00 +23°C° 0.1 mm 1 mps 692 mmHg 77%

    28 June, Thursday

    Time Temperature Precipitation Wind Pressure Humidity
    00:00 +23°C° 0.1 mm 1 mps 692 mmHg 78%
    01:00 +23°C° 0.1 mm 1 mps 691 mmHg 78%
    02:00 +23°C° 0.1 mm 1 mps 691 mmHg 79%
    03:00 +22°C° 0 mm 1 mps 691 mmHg 79%
    04:00 +22°C° 0 mm 1 mps 692 mmHg 79%
    05:00 +22°C° 0 mm 1 mps 692 mmHg 79%
    06:00 +23°C° 0 mm 1 mps 692 mmHg 75%
    07:00 +25°C° 0 mm 1 mps 693 mmHg 70%
    08:00 +26°C° 0 mm 1 mps 694 mmHg 66%
    09:00 +27°C° 0 mm 1 mps 693 mmHg 62%
    10:00 +28°C° 0 mm 2 mps 693 mmHg 58%
    11:00 +29°C° 0 mm 2 mps 693 mmHg 54%
    12:00 +29°C° 0 mm 2 mps 692 mmHg 53%
    13:00 +29°C° 0 mm 2 mps 692 mmHg 53%
    14:00 +30°C° 0 mm 2 mps 691 mmHg 52%
    15:00 +29°C° 0 mm 2 mps 691 mmHg 55%
    16:00 +29°C° 0 mm 2 mps 690 mmHg 57%
    17:00 +28°C° 0 mm 1 mps 690 mmHg 59%
    18:00 +27°C° 0 mm 1 mps 691 mmHg 65%
    19:00 +25°C° 0 mm 1 mps 691 mmHg 70%
    20:00 +22°C° 0 mm 0 mps 692 mmHg 76%
    21:00 +21°C° 0 mm 0 mps 692 mmHg 77%
    22:00 +23°C° 0 mm 1 mps 692 mmHg 78%
    23:00 +23°C° 0 mm 1 mps 692 mmHg 79%
    Show more